Terminal Aerodrome Forecast
Issued by NWS

Home | Current Version | Previous Version | Graphics & Text | Print | Product List | Glossary On
Versions: 1 2 3 4 5 6 7 8 9 10 11 12 13 14 15 16 17 18
000
FTUS42 KMHX 280941 AAA
TAFOAJ
TAF AMD
KOAJ 280941Z 2810/2906 22009KT P6SM BKN008
      TEMPO 2810/2812 BKN012
     FM281200 26010KT P6SM SCT040
     FM282300 22003KT P6SM SKC
      AMD LTD TO CLD VIS AND WIND=

USA.gov is the U.S. government's official web portal to all federal, state and local government web resources and services.